リニア-ニート彗星

224P/LINEAR-NEAT (2010)

English version
Home page
Updated on March 17, 2010

---------------------------------------------------------------------

・ プロフィール

符号 224P/2009 Q2
検出日 2009年8月27日
検出光度 21.5等
検出者 J. V. Scotti (Kitt Peak)

・ 軌道要素

Epoch 2010 Feb. 13.0 TT = JDT 2455240.5
T 2010 Jan. 31.83632 TT                                 MPC
q   1.9895932            (2000.0)            P               Q
n   0.15658724     Peri.   16.09381     +0.55508591     -0.81797336
a   3.4090377      Node    40.52851     +0.73524152     +0.39761330
e   0.4163769      Incl.   13.43610     +0.38897241     +0.41572016
P   6.29

・ 光度変化

        m1 = 15.7 + 5 logΔ + 10.0 log r

---------------------------------------------------------------------

軌道要素はM.P.E.C. 2009-Q68に掲載されたものです。
光度グラフはComet for Windowsで作成したものです。

---------------------------------------------------------------------

Copyright(C) Seiichi Yoshida (comet@aerith.net). All rights reserved.